User: anonymous   Login
Location: Unspecified
(0.0000°N, 0.0000°E)
Time: 13:34:57
(UTC+00:00)
Language:

AEROCUBE 2 - Orbit

View from above orbital plane
View from above orbital plane
View from above satellite
View from above satellite

Ground track
Ground track

The orbit data is extracted from the following two-line orbital elements,

1 31133U 07012R   17146.42196902 +.00000130 +00000-0 +36506-4 0  9991
2 31133 098.0283 102.9650 0080115 206.4691 153.2407 14.58847311537288
Epoch (UTC): 26 May 2017 10:07:38
Eccentricity: 0.0080115
inclination: 98.0283°
perigee height: 640 km
apogee height: 753 km
right ascension of ascending node: 102.9650°
argument of perigee: 206.4691°
revolutions per day: 14.58847311
mean anomaly at epoch: 153.2407°
orbit number at epoch: 53728

The dashed part of the orbit path shows where the satellite is in the earth's shadow,  

DLR